Hourly Data Report for October 24, 2013

All times are specified in Local Standard Time (LST). Add 1 hour to adjust for Daylight Saving Time where and when it is observed.

PETAWAWA AWOS 2
ONTARIO

45°57'00.000" N
77°19'00.000" W
130.10 m
6106396
71625
YWA

Download Data

Hourly Data (October 2013)
Hourly Data Report for October 24, 2013
Temp Definition
°C
Dew Point Temp Definition
°C
Rel Hum Definition
%
Wind Dir Definition
10's deg

Wind Spd Definition
km/h
Visibility Definition
km
Stn Press Definition
kPa
Hmdx Definition


Wind Chill Definition


Weather Definition


TIME
00:00 -1.8 -3.3 89   0 15.0 98.95      
01:00 -3.1 -3.9 94   0 15.0 98.91      
02:00 -2.2 -3.8 89 23 6 15.0 98.89   -5  
03:00 -1.0 -2.6 89 22 7 15.0 98.86   -4  
04:00 -1.1 -2.7 89 22 7 15.0 98.86   -4  
05:00 -0.6 -2.4 88 23 6 15.0 98.88   -3  
06:00 -0.3 -2.6 84 25 6 15.0 98.91   -2  
07:00 0.1 -2.0 86 25 7 15.0 98.93     Snow
08:00 0.7 -1.7 84 29 4 15.0 99.00      
09:00 2.2 -0.6 82 27 11 15.0 99.05      
10:00 3.0 0.4 83 27 15 15.0 99.10      
11:00 4.0 1.0 81 30 17 15.0 99.13      
12:00 4.8 -0.1 71 28 19 15.0 99.16     Rain
13:00 4.2 1.0 80 31 19 15.0 99.19     Rain
14:00 4.9 0.2 72 28 19 15.0 99.24      
15:00 4.8 1.8 81 27 13 15.0 99.33      
16:00 4.7 -0.6 68 29 15 15.0 99.42      
17:00 3.1 0.0 80 30 17 15.0 99.53      
18:00 3.0 -1.3 73 28 13 15.0 99.61      
19:00 2.1 -1.9 75 26 7 15.0 99.68      
20:00 1.6 -1.7 79 26 7 15.0 99.71      
21:00 2.3 -1.3 77 26 9 15.0 99.75      
22:00 2.6 -0.2 82 28 11 15.0 99.78      
23:00 1.7 -0.5 85 28 9 15.0 99.84      

Notes on Data Quality.

Legend

  • E = Estimated
  • M = Missing
  • NA = Not Available
  • ‡ = Partner data that is not subject to review by the National Climate Archives
Date modified: